Time,TemperatureF,DewpointF,PressureIn,WindDirection,WindDirectionDegrees,WindSpeedMPH,WindSpeedGustMPH,Humidity,HourlyPrecipIn,Conditions,Clouds,dailyrainin,SoftwareType,DateUTC
2013-09-09 00:00:00,55.2,51.3,30.06,SE,135,2.0,8.0,87,0.00,,,0.00,WUHU21636XXSP,2013-09-09 04:00:00,
2013-09-09 00:01:00,55.2,51.3,30.06,SE,135,2.0,8.0,87,0.00,,,0.00,WUHU21636XXSP,2013-09-09 04:01:00,
2013-09-09 00:06:00,55.8,51.4,30.06,SE,135,0.0,14.5,86,0.00,,,0.00,WUHU21636XXSP,2013-09-09 04:06:00,
2013-09-09 00:11:00,55.9,51.6,30.06,SE,135,0.0,14.5,85,0.00,,,0.00,WUHU21636XXSP,2013-09-09 04:11:00,
2013-09-09 00:16:00,56.1,51.6,30.06,SE,135,3.5,3.5,85,0.00,,,0.00,WUHU21636XXSP,2013-09-09 04:16:00,
2013-09-09 00:21:00,55.9,51.4,30.06,SSE,157,1.5,3.5,85,0.00,,,0.00,WUHU21636XXSP,2013-09-09 04:21:00,
2013-09-09 00:26:00,55.9,51.4,30.05,SE,135,4.4,4.4,85,0.00,,,0.00,WUHU21636XXSP,2013-09-09 04:26:00,
2013-09-09 00:31:00,55.8,51.3,30.06,South,180,0.0,4.4,85,0.00,,,0.00,WUHU21636XXSP,2013-09-09 04:31:00,
2013-09-09 00:37:00,55.6,51.1,30.06,South,180,2.6,4.0,85,0.00,,,0.00,WUHU21636XXSP,2013-09-09 04:37:00,
2013-09-09 00:42:00,55.6,51.1,30.06,SE,135,0.0,2.6,85,0.00,,,0.00,WUHU21636XXSP,2013-09-09 04:42:00,
2013-09-09 00:47:00,55.4,50.9,30.06,SSE,157,2.9,2.9,85,0.00,,,0.00,WUHU21636XXSP,2013-09-09 04:47:00,
2013-09-09 00:52:00,55.4,50.9,30.06,SSE,157,2.0,2.9,85,0.00,,,0.00,WUHU21636XXSP,2013-09-09 04:52:00,
2013-09-09 00:57:00,55.2,50.7,30.06,SE,135,2.6,2.9,85,0.00,,,0.00,WUHU21636XXSP,2013-09-09 04:57:00,
2013-09-09 01:02:00,55.2,50.7,30.06,SSE,157,2.9,4.0,85,0.00,,,0.00,WUHU21636XXSP,2013-09-09 05:02:00,
2013-09-09 01:07:00,55.2,50.7,30.05,SE,135,0.0,4.0,85,0.00,,,0.00,WUHU21636XXSP,2013-09-09 05:07:00,
2013-09-09 01:12:00,55.2,50.7,30.05,SE,135,0.0,2.9,85,0.00,,,0.00,WUHU21636XXSP,2013-09-09 05:12:00,
2013-09-09 01:17:00,55.2,50.7,30.06,ESE,112,1.3,2.6,85,0.00,,,0.00,WUHU21636XXSP,2013-09-09 05:17:00,
2013-09-09 01:22:00,55.2,50.7,30.05,ESE,112,0.0,2.6,85,0.00,,,0.00,WUHU21636XXSP,2013-09-09 05:22:00,
2013-09-09 01:27:00,55.2,50.7,30.05,ESE,112,3.3,3.3,85,0.00,,,0.00,WUHU21636XXSP,2013-09-09 05:27:00,
2013-09-09 01:32:00,55.2,50.7,30.06,SE,135,0.0,3.3,84,0.00,,,0.00,WUHU21636XXSP,2013-09-09 05:32:00,
2013-09-09 01:37:00,55.2,50.7,30.06,SE,135,0.0,0.0,84,0.00,,,0.00,WUHU21636XXSP,2013-09-09 05:37:00,
2013-09-09 01:42:00,55.2,50.7,30.05,SE,135,0.0,0.0,84,0.00,,,0.00,WUHU21636XXSP,2013-09-09 05:42:00,
2013-09-09 01:47:00,55.0,50.2,30.05,SE,135,0.0,0.0,84,0.00,,,0.00,WUHU21636XXSP,2013-09-09 05:47:00,
2013-09-09 01:52:00,55.0,50.2,30.05,SE,135,0.0,0.0,84,0.00,,,0.00,WUHU21636XXSP,2013-09-09 05:52:00,
2013-09-09 01:57:00,55.0,50.2,30.05,SE,135,0.0,0.0,83,0.00,,,0.00,WUHU21636XXSP,2013-09-09 05:57:00,
2013-09-09 02:02:00,55.0,50.2,30.05,SE,135,0.0,0.0,83,0.00,,,0.00,WUHU21636XXSP,2013-09-09 06:02:00,
2013-09-09 02:07:00,54.7,49.5,30.05,SE,135,0.0,0.0,83,0.00,,,0.00,WUHU21636XXSP,2013-09-09 06:07:00,
2013-09-09 02:12:00,54.7,49.5,30.05,SE,135,0.0,0.0,83,0.00,,,0.00,WUHU21636XXSP,2013-09-09 06:12:00,
2013-09-09 02:17:00,54.7,49.5,30.05,SE,135,0.0,0.0,83,0.00,,,0.00,WUHU21636XXSP,2013-09-09 06:17:00,
2013-09-09 02:22:00,55.0,49.5,30.04,SE,135,0.0,2.0,82,0.00,,,0.00,WUHU21636XXSP,2013-09-09 06:22:00,
2013-09-09 02:27:00,55.0,49.5,30.04,SE,135,0.2,2.0,81,0.00,,,0.00,WUHU21636XXSP,2013-09-09 06:27:00,
2013-09-09 02:32:00,55.2,49.3,30.04,SE,135,0.8,2.4,81,0.00,,,0.00,WUHU21636XXSP,2013-09-09 06:32:00,
2013-09-09 02:37:00,55.2,49.3,30.04,South,180,3.3,3.3,80,0.00,,,0.00,WUHU21636XXSP,2013-09-09 06:37:00,
2013-09-09 02:42:00,55.6,49.6,30.04,SSE,157,2.4,3.3,81,0.00,,,0.00,WUHU21636XXSP,2013-09-09 06:42:00,
2013-09-09 02:47:00,55.6,49.6,30.04,South,180,2.9,3.3,81,0.00,,,0.00,WUHU21636XXSP,2013-09-09 06:47:00,
2013-09-09 02:52:00,55.8,49.8,30.04,South,180,0.0,3.3,81,0.00,,,0.00,WUHU21636XXSP,2013-09-09 06:52:00,
2013-09-09 02:57:00,55.8,49.8,30.04,SSE,157,0.0,4.6,81,0.00,,,0.00,WUHU21636XXSP,2013-09-09 06:57:00,
2013-09-09 03:02:00,55.9,50.0,30.04,SSW,202,0.6,4.6,81,0.00,,,0.00,WUHU21636XXSP,2013-09-09 07:02:00,
2013-09-09 03:07:00,55.8,49.8,30.04,SSE,157,2.4,2.4,81,0.00,,,0.00,WUHU21636XXSP,2013-09-09 07:07:00,
2013-09-09 03:12:00,55.8,49.8,30.04,SE,135,0.4,2.4,81,0.00,,,0.00,WUHU21636XXSP,2013-09-09 07:12:00,
2013-09-09 03:17:00,55.9,50.4,30.04,SE,135,0.0,2.4,82,0.00,,,0.00,WUHU21636XXSP,2013-09-09 07:17:00,
2013-09-09 03:22:00,55.9,50.4,30.04,South,180,3.5,3.5,82,0.00,,,0.00,WUHU21636XXSP,2013-09-09 07:22:00,
2013-09-09 03:27:00,55.9,50.4,30.04,SSE,157,2.9,3.5,82,0.00,,,0.00,WUHU21636XXSP,2013-09-09 07:27:00,
2013-09-09 03:32:00,55.9,50.4,30.03,South,180,1.5,3.5,82,0.00,,,0.00,WUHU21636XXSP,2013-09-09 07:32:00,
2013-09-09 03:37:00,55.9,50.4,30.03,SSE,157,0.0,6.2,82,0.00,,,0.00,WUHU21636XXSP,2013-09-09 07:37:00,
2013-09-09 03:42:00,56.1,50.5,30.03,SSE,157,0.0,6.2,82,0.00,,,0.00,WUHU21636XXSP,2013-09-09 07:42:00,
2013-09-09 03:47:00,56.1,50.2,30.03,SE,135,3.3,5.3,81,0.00,,,0.00,WUHU21636XXSP,2013-09-09 07:47:00,
2013-09-09 03:52:00,56.1,50.5,30.03,SSE,157,4.2,5.3,82,0.00,,,0.00,WUHU21636XXSP,2013-09-09 07:52:00,
2013-09-09 03:57:00,56.1,50.2,30.03,South,180,0.0,4.2,81,0.00,,,0.00,WUHU21636XXSP,2013-09-09 07:57:00,
2013-09-09 04:02:00,56.1,50.2,30.03,South,180,0.0,0.8,81,0.00,,,0.00,WUHU21636XXSP,2013-09-09 08:02:00,
2013-09-09 04:07:00,56.1,50.2,30.03,SSW,202,1.5,1.5,82,0.00,,,0.00,WUHU21636XXSP,2013-09-09 08:07:00,
2013-09-09 04:12:00,56.1,50.2,30.03,South,180,0.0,5.1,81,0.00,,,0.00,WUHU21636XXSP,2013-09-09 08:12:00,
2013-09-09 04:17:00,56.1,50.2,30.03,South,180,0.0,5.1,81,0.00,,,0.00,WUHU21636XXSP,2013-09-09 08:17:00,
2013-09-09 04:22:00,56.3,50.4,30.03,SSE,157,3.8,4.0,81,0.00,,,0.00,WUHU21636XXSP,2013-09-09 08:22:00,
2013-09-09 04:27:00,56.3,50.4,30.03,SSW,202,0.0,3.8,81,0.00,,,0.00,WUHU21636XXSP,2013-09-09 08:27:00,
2013-09-09 04:32:00,56.3,50.4,30.03,South,180,0.0,3.1,81,0.00,,,0.00,WUHU21636XXSP,2013-09-09 08:32:00,
2013-09-09 04:37:00,56.1,50.2,30.03,SE,135,0.0,3.1,81,0.00,,,0.00,WUHU21636XXSP,2013-09-09 08:37:00,
2013-09-09 04:42:00,55.9,50.4,30.03,SSE,157,3.1,3.1,82,0.00,,,0.00,WUHU21636XXSP,2013-09-09 08:42:00,
2013-09-09 04:47:00,55.9,50.4,30.03,SSE,157,0.0,3.1,82,0.00,,,0.00,WUHU21636XXSP,2013-09-09 08:47:00,
2013-09-09 04:52:00,55.9,50.4,30.03,SE,135,0.0,3.1,82,0.00,,,0.00,WUHU21636XXSP,2013-09-09 08:52:00,
2013-09-09 04:57:00,55.9,50.4,30.03,SSE,157,0.0,1.5,82,0.00,,,0.00,WUHU21636XXSP,2013-09-09 08:57:00,
2013-09-09 05:02:00,55.9,50.4,30.03,South,180,1.1,1.1,82,0.00,,,0.00,WUHU21636XXSP,2013-09-09 09:02:00,
2013-09-09 05:07:00,55.9,50.4,30.03,SSW,202,0.0,2.2,82,0.00,,,0.00,WUHU21636XXSP,2013-09-09 09:07:00,
2013-09-09 05:12:00,55.9,50.4,30.02,South,180,0.0,6.2,82,0.00,,,0.00,WUHU21636XXSP,2013-09-09 09:12:00,
2013-09-09 05:17:00,55.9,50.4,30.03,SSE,157,2.2,6.2,82,0.00,,,0.00,WUHU21636XXSP,2013-09-09 09:17:00,
2013-09-09 05:22:00,56.1,50.5,30.02,South,180,0.0,2.2,82,0.00,,,0.00,WUHU21636XXSP,2013-09-09 09:22:00,
2013-09-09 05:27:00,56.3,50.4,30.02,South,180,1.1,2.2,81,0.00,,,0.00,WUHU21636XXSP,2013-09-09 09:27:00,
2013-09-09 05:32:00,56.5,50.5,30.02,South,180,1.5,1.5,81,0.00,,,0.00,WUHU21636XXSP,2013-09-09 09:32:00,
2013-09-09 05:37:00,56.5,50.5,30.02,SE,135,0.0,3.3,80,0.00,,,0.00,WUHU21636XXSP,2013-09-09 09:37:00,
2013-09-09 05:42:00,56.8,50.7,30.01,South,180,2.6,3.3,80,0.00,,,0.00,WUHU21636XXSP,2013-09-09 09:42:00,
2013-09-09 05:47:00,56.8,50.7,30.00,SE,135,0.0,2.6,80,0.00,,,0.00,WUHU21636XXSP,2013-09-09 09:47:00,
2013-09-09 05:52:00,57.0,50.5,30.01,South,180,2.6,6.9,79,0.00,,,0.00,WUHU21636XXSP,2013-09-09 09:52:00,
2013-09-09 05:57:00,57.0,50.5,30.01,SSE,157,0.0,6.9,79,0.00,,,0.00,WUHU21636XXSP,2013-09-09 09:57:00,
2013-09-09 06:02:00,57.0,50.5,30.01,SE,135,0.0,2.6,78,0.00,,,0.00,WUHU21636XXSP,2013-09-09 10:02:00,
2013-09-09 06:07:00,57.0,50.5,30.01,SE,135,1.1,1.1,78,0.00,,,0.00,WUHU21636XXSP,2013-09-09 10:07:00,
2013-09-09 06:12:00,57.2,50.4,30.01,SE,135,2.4,2.4,78,0.00,,,0.00,WUHU21636XXSP,2013-09-09 10:12:00,
2013-09-09 06:17:00,57.4,50.5,30.01,SE,135,0.0,2.4,78,0.00,,,0.00,WUHU21636XXSP,2013-09-09 10:17:00,
2013-09-09 06:22:00,57.2,50.4,30.00,South,180,4.4,4.4,78,0.00,,,0.00,WUHU21636XXSP,2013-09-09 10:22:00,
2013-09-09 06:27:00,57.0,50.5,30.01,South,180,1.3,4.4,79,0.00,,,0.00,WUHU21636XXSP,2013-09-09 10:27:00,
2013-09-09 06:32:00,56.8,50.7,30.00,South,180,0.0,4.4,80,0.00,,,0.00,WUHU21636XXSP,2013-09-09 10:32:00,
2013-09-09 06:37:00,56.5,50.5,30.00,South,180,0.8,2.9,81,0.00,,,0.00,WUHU21636XXSP,2013-09-09 10:37:00,
2013-09-09 06:42:00,56.3,50.7,30.00,South,180,4.2,4.2,82,0.00,,,0.00,WUHU21636XXSP,2013-09-09 10:42:00,
2013-09-09 06:47:00,56.1,50.5,30.00,South,180,0.0,4.2,83,0.00,,,0.00,WUHU21636XXSP,2013-09-09 10:47:00,
2013-09-09 06:52:00,55.9,50.4,30.00,SSW,202,2.6,4.2,82,0.00,,,0.00,WUHU21636XXSP,2013-09-09 10:52:00,
2013-09-09 06:57:00,55.9,50.4,30.00,SSE,157,0.0,2.6,82,0.00,,,0.00,WUHU21636XXSP,2013-09-09 10:57:00,
2013-09-09 07:02:00,55.8,50.5,30.00,SW,225,0.0,7.6,83,0.00,,,0.00,WUHU21636XXSP,2013-09-09 11:02:00,
2013-09-09 07:07:00,55.8,50.5,30.00,SE,135,2.6,7.6,83,0.00,,,0.00,WUHU21636XXSP,2013-09-09 11:07:00,
2013-09-09 07:12:00,55.8,50.5,30.00,South,180,3.3,3.3,83,0.00,,,0.00,WUHU21636XXSP,2013-09-09 11:12:00,
2013-09-09 07:17:00,55.8,50.5,30.00,SE,135,1.1,3.3,83,0.00,,,0.00,WUHU21636XXSP,2013-09-09 11:17:00,
2013-09-09 07:18:00,55.8,50.5,30.00,SE,135,1.1,3.3,83,0.00,,,0.00,WUHU21636XXSP,2013-09-09 11:18:00,
2013-09-09 07:23:00,55.8,50.5,30.00,SSE,157,1.5,3.3,83,0.00,,,0.00,WUHU21636XXSP,2013-09-09 11:23:00,
2013-09-09 07:28:00,55.9,50.7,30.00,SSE,157,4.0,4.0,83,0.00,,,0.00,WUHU21636XXSP,2013-09-09 11:28:00,
2013-09-09 07:33:00,55.9,50.4,30.00,South,180,2.0,6.2,82,0.00,,,0.00,WUHU21636XXSP,2013-09-09 11:33:00,
2013-09-09 07:38:00,56.1,50.5,30.00,SSE,157,2.0,6.2,82,0.00,,,0.00,WUHU21636XXSP,2013-09-09 11:38:00,
2013-09-09 07:43:00,56.3,50.7,30.00,South,180,4.4,4.4,82,0.00,,,0.00,WUHU21636XXSP,2013-09-09 11:43:00,
2013-09-09 07:48:00,56.3,50.7,30.00,South,180,0.0,7.1,81,0.00,,,0.00,WUHU21636XXSP,2013-09-09 11:48:00,
2013-09-09 07:53:00,56.8,50.9,30.00,SSE,157,2.0,7.1,81,0.00,,,0.00,WUHU21636XXSP,2013-09-09 11:53:00,
2013-09-09 07:58:00,56.8,50.7,29.99,SSE,157,3.1,7.1,80,0.00,,,0.00,WUHU21636XXSP,2013-09-09 11:58:00,
2013-09-09 08:03:00,57.0,50.9,30.00,South,180,1.5,5.5,80,0.00,,,0.00,WUHU21636XXSP,2013-09-09 12:03:00,
2013-09-09 08:08:00,57.4,51.3,29.99,SE,135,2.9,5.3,80,0.00,,,0.00,WUHU21636XXSP,2013-09-09 12:08:00,
2013-09-09 08:13:00,57.4,51.3,29.99,SE,135,3.1,3.5,80,0.00,,,0.00,WUHU21636XXSP,2013-09-09 12:13:00,
2013-09-09 08:18:00,57.6,51.3,29.99,SE,135,3.1,3.1,80,0.00,,,0.00,WUHU21636XXSP,2013-09-09 12:18:00,
2013-09-09 08:23:00,57.7,51.6,29.99,ESE,112,0.0,3.1,80,0.00,,,0.00,WUHU21636XXSP,2013-09-09 12:23:00,
2013-09-09 08:28:00,57.7,51.6,29.99,ESE,112,0.0,3.1,80,0.00,,,0.00,WUHU21636XXSP,2013-09-09 12:28:00,
2013-09-09 08:33:00,57.9,51.8,30.00,SE,135,0.0,0.0,80,0.00,,,0.00,WUHU21636XXSP,2013-09-09 12:33:00,
2013-09-09 08:38:00,57.9,51.8,30.00,SE,135,0.0,0.0,80,0.00,,,0.00,WUHU21636XXSP,2013-09-09 12:38:00,
2013-09-09 08:43:00,57.9,51.8,30.00,SE,135,1.1,1.1,81,0.00,,,0.00,WUHU21636XXSP,2013-09-09 12:43:00,
2013-09-09 08:48:00,58.3,52.3,30.00,SSE,157,0.0,1.1,81,0.00,,,0.00,WUHU21636XXSP,2013-09-09 12:48:00,
2013-09-09 08:53:00,58.3,52.3,30.00,SSE,157,0.0,4.2,81,0.00,,,0.00,WUHU21636XXSP,2013-09-09 12:53:00,
2013-09-09 08:58:00,58.6,52.7,30.00,SSE,157,0.0,4.2,81,0.00,,,0.00,WUHU21636XXSP,2013-09-09 12:58:00,
2013-09-09 09:03:00,58.8,52.9,30.00,SSE,157,0.0,0.0,81,0.00,,,0.00,WUHU21636XXSP,2013-09-09 13:03:00,
2013-09-09 09:08:00,59.0,53.1,29.99,SE,135,3.5,7.1,81,0.00,,,0.00,WUHU21636XXSP,2013-09-09 13:08:00,
2013-09-09 09:13:00,59.0,53.1,29.99,SSE,157,0.0,7.1,81,0.00,,,0.00,WUHU21636XXSP,2013-09-09 13:13:00,
2013-09-09 09:18:00,59.0,53.1,29.99,SE,135,1.5,3.5,80,0.00,,,0.00,WUHU21636XXSP,2013-09-09 13:18:00,
2013-09-09 09:23:00,59.4,53.2,30.00,South,180,3.1,3.1,80,0.00,,,0.00,WUHU21636XXSP,2013-09-09 13:23:00,
2013-09-09 09:28:00,59.7,53.6,30.00,SSE,157,1.1,3.1,80,0.00,,,0.00,WUHU21636XXSP,2013-09-09 13:28:00,
2013-09-09 09:33:00,59.7,53.6,29.99,SE,135,1.5,3.1,80,0.00,,,0.00,WUHU21636XXSP,2013-09-09 13:33:00,
2013-09-09 09:38:00,60.3,54.1,29.99,SSE,157,3.8,6.0,80,0.00,,,0.00,WUHU21636XXSP,2013-09-09 13:38:00,
2013-09-09 09:43:00,60.6,54.5,29.98,SSE,157,1.5,6.0,80,0.00,,,0.00,WUHU21636XXSP,2013-09-09 13:43:00,
2013-09-09 09:48:00,61.0,54.3,29.98,South,180,4.4,4.4,79,0.00,,,0.00,WUHU21636XXSP,2013-09-09 13:48:00,
2013-09-09 09:53:00,61.7,55.0,29.98,SSE,157,7.3,12.5,79,0.00,,,0.00,WUHU21636XXSP,2013-09-09 13:53:00,
2013-09-09 09:58:00,62.4,55.0,29.99,SSE,157,2.6,12.5,77,0.00,,,0.00,WUHU21636XXSP,2013-09-09 13:58:00,
2013-09-09 10:03:00,63.0,55.9,29.99,SE,135,0.0,10.0,78,0.00,,,0.00,WUHU21636XXSP,2013-09-09 14:03:00,
2013-09-09 10:08:00,63.1,55.4,29.98,South,180,2.6,8.5,76,0.00,,,0.00,WUHU21636XXSP,2013-09-09 14:08:00,
2013-09-09 10:13:00,63.5,55.8,29.99,SSW,202,2.9,7.8,76,0.00,,,0.00,WUHU21636XXSP,2013-09-09 14:13:00,
2013-09-09 10:18:00,63.7,55.6,29.99,South,180,3.3,4.0,75,0.00,,,0.00,WUHU21636XXSP,2013-09-09 14:18:00,
2013-09-09 10:23:00,64.0,56.3,29.99,SSW,202,2.9,6.9,76,0.00,,,0.00,WUHU21636XXSP,2013-09-09 14:23:00,
2013-09-09 10:28:00,64.0,56.3,29.98,SE,135,4.2,6.9,76,0.00,,,0.00,WUHU21636XXSP,2013-09-09 14:28:00,
2013-09-09 10:33:00,64.8,56.1,29.98,SSE,157,4.2,6.4,74,0.00,,,0.00,WUHU21636XXSP,2013-09-09 14:33:00,
2013-09-09 10:38:00,64.9,56.3,29.97,SSE,157,0.8,4.9,74,0.00,,,0.00,WUHU21636XXSP,2013-09-09 14:38:00,
2013-09-09 10:43:00,64.8,56.1,29.98,South,180,3.1,4.9,74,0.00,,,0.00,WUHU21636XXSP,2013-09-09 14:43:00,
2013-09-09 10:48:00,64.8,56.1,29.98,SE,135,0.8,3.1,74,0.00,,,0.00,WUHU21636XXSP,2013-09-09 14:48:00,
2013-09-09 10:53:00,64.2,56.1,29.98,SSE,157,2.4,8.5,75,0.00,,,0.00,WUHU21636XXSP,2013-09-09 14:53:00,
2013-09-09 10:58:00,64.2,56.1,29.97,SSE,157,3.1,8.5,76,0.00,,,0.00,WUHU21636XXSP,2013-09-09 14:58:00,
2013-09-09 11:03:00,64.6,56.7,29.97,South,180,2.0,3.1,76,0.00,,,0.00,WUHU21636XXSP,2013-09-09 15:03:00,
2013-09-09 11:08:00,64.9,57.0,29.97,SSE,157,3.8,3.8,76,0.00,,,0.00,WUHU21636XXSP,2013-09-09 15:08:00,
2013-09-09 11:13:00,65.3,57.0,29.97,SSE,157,1.5,3.8,75,0.00,,,0.00,WUHU21636XXSP,2013-09-09 15:13:00,
2013-09-09 11:18:00,65.5,56.8,29.97,SSE,157,2.6,6.4,74,0.00,,,0.00,WUHU21636XXSP,2013-09-09 15:18:00,
2013-09-09 11:23:00,66.4,58.1,29.96,SSE,157,4.2,8.0,75,0.00,,,0.00,WUHU21636XXSP,2013-09-09 15:23:00,
2013-09-09 11:28:00,67.5,58.8,29.96,SSW,202,3.3,9.1,74,0.00,,,0.00,WUHU21636XXSP,2013-09-09 15:28:00,
2013-09-09 11:33:00,68.5,58.6,29.96,SE,135,6.7,11.6,71,0.00,,,0.00,WUHU21636XXSP,2013-09-09 15:33:00,
2013-09-09 11:38:00,68.5,58.6,29.97,SE,135,0.0,11.6,71,0.00,,,0.00,WUHU21636XXSP,2013-09-09 15:38:00,
2013-09-09 11:43:00,68.4,59.0,29.97,South,180,4.2,8.5,72,0.00,,,0.00,WUHU21636XXSP,2013-09-09 15:43:00,
2013-09-09 11:48:00,68.4,59.0,29.97,ESE,112,4.9,8.5,72,0.00,,,0.00,WUHU21636XXSP,2013-09-09 15:48:00,
2013-09-09 11:53:00,68.2,59.2,29.97,SSE,157,0.6,5.5,73,0.00,,,0.00,WUHU21636XXSP,2013-09-09 15:53:00,
2013-09-09 11:58:00,67.8,58.8,29.97,SSE,157,5.3,5.5,73,0.00,,,0.00,WUHU21636XXSP,2013-09-09 15:58:00,
2013-09-09 12:03:00,67.8,58.8,29.97,SSE,157,4.9,5.3,73,0.00,,,0.00,WUHU21636XXSP,2013-09-09 16:03:00,
2013-09-09 12:08:00,67.6,59.0,29.97,South,180,0.0,4.9,75,0.00,,,0.00,WUHU21636XXSP,2013-09-09 16:08:00,
2013-09-09 12:13:00,67.6,59.4,29.97,South,180,3.1,6.2,75,0.00,,,0.00,WUHU21636XXSP,2013-09-09 16:13:00,
2013-09-09 12:18:00,67.6,59.4,29.97,SSE,157,0.0,6.2,75,0.00,,,0.00,WUHU21636XXSP,2013-09-09 16:18:00,
2013-09-09 12:23:00,67.6,59.4,29.97,SSW,202,1.7,3.8,76,0.00,,,0.00,WUHU21636XXSP,2013-09-09 16:23:00,
2013-09-09 12:28:00,67.6,59.7,29.97,SSW,202,4.4,4.4,76,0.00,,,0.00,WUHU21636XXSP,2013-09-09 16:28:00,
2013-09-09 12:33:00,67.6,59.7,29.96,SSE,157,5.5,10.5,76,0.00,,,0.00,WUHU21636XXSP,2013-09-09 16:33:00,
2013-09-09 12:38:00,68.0,60.4,29.96,SSE,157,1.7,10.5,77,0.00,,,0.00,WUHU21636XXSP,2013-09-09 16:38:00,
2013-09-09 12:43:00,68.9,60.6,29.96,South,180,2.2,6.7,75,0.00,,,0.00,WUHU21636XXSP,2013-09-09 16:43:00,
2013-09-09 12:48:00,69.4,61.0,29.96,SSW,202,0.6,2.2,75,0.00,,,0.00,WUHU21636XXSP,2013-09-09 16:48:00,
2013-09-09 12:53:00,69.8,61.0,29.96,South,180,3.5,4.4,74,0.00,,,0.00,WUHU21636XXSP,2013-09-09 16:53:00,
2013-09-09 12:58:00,70.5,61.7,29.96,SSE,157,3.1,8.5,74,0.00,,,0.00,WUHU21636XXSP,2013-09-09 16:58:00,
2013-09-09 13:03:00,70.5,61.7,29.96,South,180,3.1,8.5,73,0.00,,,0.00,WUHU21636XXSP,2013-09-09 17:03:00,
2013-09-09 13:08:00,70.5,61.7,29.96,SE,135,1.7,3.3,74,0.00,,,0.00,WUHU21636XXSP,2013-09-09 17:08:00,
2013-09-09 13:13:00,70.7,61.9,29.96,SW,225,3.5,6.4,74,0.00,,,0.00,WUHU21636XXSP,2013-09-09 17:13:00,
2013-09-09 13:18:00,71.1,61.9,29.96,SSE,157,3.5,6.4,73,0.00,,,0.00,WUHU21636XXSP,2013-09-09 17:18:00,
2013-09-09 13:23:00,70.9,62.1,29.96,SSW,202,0.4,4.0,73,0.00,,,0.00,WUHU21636XXSP,2013-09-09 17:23:00,
2013-09-09 13:28:00,70.5,61.3,29.96,South,180,0.4,7.1,73,0.00,,,0.00,WUHU21636XXSP,2013-09-09 17:28:00,
2013-09-09 13:33:00,70.5,61.7,29.96,SSE,157,0.8,7.1,74,0.00,,,0.00,WUHU21636XXSP,2013-09-09 17:33:00,
2013-09-09 13:38:00,70.5,61.7,29.96,South,180,0.4,4.0,74,0.00,,,0.00,WUHU21636XXSP,2013-09-09 17:38:00,
2013-09-09 13:43:00,70.3,61.9,29.96,SSW,202,2.6,2.6,75,0.00,,,0.00,WUHU21636XXSP,2013-09-09 17:43:00,
2013-09-09 13:48:00,70.5,62.1,29.95,SSE,157,3.8,8.2,75,0.00,,,0.00,WUHU21636XXSP,2013-09-09 17:48:00,
2013-09-09 13:53:00,70.7,62.6,29.95,West,270,0.0,8.2,76,0.00,,,0.00,WUHU21636XXSP,2013-09-09 17:53:00,
2013-09-09 13:58:00,70.9,62.8,29.95,West,270,0.0,3.8,75,0.00,,,0.00,WUHU21636XXSP,2013-09-09 17:58:00,
2013-09-09 14:03:00,71.2,62.8,29.95,West,270,0.0,0.8,75,0.00,,,0.00,WUHU21636XXSP,2013-09-09 18:03:00,
2013-09-09 14:08:00,71.2,62.8,29.94,West,270,0.0,1.7,75,0.00,,,0.00,WUHU21636XXSP,2013-09-09 18:08:00,
2013-09-09 14:13:00,71.2,62.8,29.94,WSW,247,0.0,1.7,75,0.00,,,0.00,WUHU21636XXSP,2013-09-09 18:13:00,
2013-09-09 14:18:00,71.2,63.1,29.94,SSW,202,0.8,1.1,76,0.00,,,0.00,WUHU21636XXSP,2013-09-09 18:18:00,
2013-09-09 14:23:00,71.2,63.1,29.93,SSW,202,3.1,3.1,77,0.00,,,0.00,WUHU21636XXSP,2013-09-09 18:23:00,
2013-09-09 14:28:00,71.4,63.7,29.93,SW,225,0.0,3.1,77,0.00,,,0.00,WUHU21636XXSP,2013-09-09 18:28:00,
2013-09-09 14:33:00,72.3,64.2,29.91,SE,135,4.4,4.4,76,0.00,,,0.00,WUHU21636XXSP,2013-09-09 18:33:00,
2013-09-09 14:38:00,72.3,64.2,29.91,SE,135,0.0,4.4,76,0.00,,,0.00,WUHU21636XXSP,2013-09-09 18:38:00,
2013-09-09 14:43:00,72.7,64.9,29.90,SE,135,4.6,4.6,77,0.00,,,0.00,WUHU21636XXSP,2013-09-09 18:43:00,
2013-09-09 14:48:00,73.2,65.1,29.90,South,180,3.3,7.6,76,0.00,,,0.00,WUHU21636XXSP,2013-09-09 18:48:00,
2013-09-09 14:53:00,74.3,65.5,29.90,SSW,202,2.0,7.6,74,0.00,,,0.00,WUHU21636XXSP,2013-09-09 18:53:00,
2013-09-09 14:58:00,74.1,65.7,29.90,South,180,3.3,3.8,75,0.00,,,0.00,WUHU21636XXSP,2013-09-09 18:58:00,
2013-09-09 15:03:00,74.1,65.3,29.90,WSW,247,0.4,3.3,74,0.00,,,0.00,WUHU21636XXSP,2013-09-09 19:03:00,
2013-09-09 15:08:00,74.1,65.3,29.89,SSE,157,3.5,3.5,74,0.00,,,0.00,WUHU21636XXSP,2013-09-09 19:08:00,
2013-09-09 15:13:00,73.2,64.8,29.88,SSE,157,2.9,9.6,75,0.00,,,0.00,WUHU21636XXSP,2013-09-09 19:13:00,
2013-09-09 15:18:00,73.2,64.8,29.88,South,180,0.0,9.6,77,0.00,,,0.00,WUHU21636XXSP,2013-09-09 19:18:00,
2013-09-09 15:23:00,75.0,66.9,29.88,SW,225,0.6,5.5,76,0.00,,,0.00,WUHU21636XXSP,2013-09-09 19:23:00,
2013-09-09 15:28:00,75.9,66.2,29.88,SSW,202,4.4,5.5,72,0.00,,,0.00,WUHU21636XXSP,2013-09-09 19:28:00,
2013-09-09 15:33:00,75.7,66.4,29.87,South,180,4.0,7.6,73,0.00,,,0.00,WUHU21636XXSP,2013-09-09 19:33:00,
2013-09-09 15:38:00,75.4,65.7,29.87,SSW,202,4.2,8.2,72,0.00,,,0.00,WUHU21636XXSP,2013-09-09 19:38:00,
2013-09-09 15:43:00,74.8,65.8,29.86,SE,135,3.3,9.6,74,0.00,,,0.00,WUHU21636XXSP,2013-09-09 19:43:00,
2013-09-09 15:48:00,74.7,66.2,29.85,SE,135,3.8,9.6,75,0.00,,,0.00,WUHU21636XXSP,2013-09-09 19:48:00,
2013-09-09 15:53:00,75.2,66.7,29.85,SSE,157,4.4,9.3,75,0.00,,,0.00,WUHU21636XXSP,2013-09-09 19:53:00,
2013-09-09 15:58:00,75.2,66.4,29.85,SSW,202,4.6,13.1,74,0.00,,,0.00,WUHU21636XXSP,2013-09-09 19:58:00,
2013-09-09 16:03:00,75.6,66.9,29.85,SW,225,2.0,13.1,75,0.00,,,0.00,WUHU21636XXSP,2013-09-09 20:03:00,
2013-09-09 16:08:00,75.9,66.9,29.85,South,180,4.4,10.9,74,0.00,,,0.00,WUHU21636XXSP,2013-09-09 20:08:00,
2013-09-09 16:13:00,76.3,66.9,29.85,SSE,157,3.3,10.9,73,0.00,,,0.00,WUHU21636XXSP,2013-09-09 20:13:00,
2013-09-09 16:18:00,75.9,66.6,29.86,South,180,0.0,3.3,73,0.00,,,0.00,WUHU21636XXSP,2013-09-09 20:18:00,
2013-09-09 16:23:00,75.7,66.4,29.86,South,180,3.3,7.1,73,0.00,,,0.00,WUHU21636XXSP,2013-09-09 20:23:00,
2013-09-09 16:28:00,75.7,66.4,29.86,SSW,202,0.0,7.1,74,0.00,,,0.00,WUHU21636XXSP,2013-09-09 20:28:00,
2013-09-09 16:33:00,75.9,66.9,29.86,SSW,202,0.0,3.3,74,0.00,,,0.00,WUHU21636XXSP,2013-09-09 20:33:00,
2013-09-09 16:38:00,76.3,66.9,29.86,SSE,157,1.7,7.6,73,0.00,,,0.00,WUHU21636XXSP,2013-09-09 20:38:00,
2013-09-09 16:43:00,76.6,67.3,29.86,SE,135,2.4,7.6,73,0.00,,,0.00,WUHU21636XXSP,2013-09-09 20:43:00,
2013-09-09 16:48:00,76.6,67.3,29.86,SSW,202,0.0,2.4,73,0.00,,,0.00,WUHU21636XXSP,2013-09-09 20:48:00,
2013-09-09 16:53:00,76.8,67.1,29.87,SSW,202,0.0,2.4,72,0.00,,,0.00,WUHU21636XXSP,2013-09-09 20:53:00,
2013-09-09 16:58:00,77.2,67.8,29.87,SSW,202,0.0,0.0,73,0.00,,,0.00,WUHU21636XXSP,2013-09-09 20:58:00,
2013-09-09 17:03:00,77.5,67.6,29.87,SW,225,0.0,0.0,72,0.00,,,0.00,WUHU21636XXSP,2013-09-09 21:03:00,
2013-09-09 17:08:00,77.9,67.6,29.86,SW,225,0.0,0.0,71,0.00,,,0.00,WUHU21636XXSP,2013-09-09 21:08:00,
2013-09-09 17:13:00,78.1,67.5,29.85,SSE,157,3.8,3.8,70,0.00,,,0.00,WUHU21636XXSP,2013-09-09 21:13:00,
2013-09-09 17:18:00,77.4,67.1,29.84,SSE,157,4.4,8.2,71,0.00,,,0.00,WUHU21636XXSP,2013-09-09 21:18:00,
2013-09-09 17:23:00,76.6,67.3,29.83,SE,135,1.7,8.2,73,0.00,,,0.00,WUHU21636XXSP,2013-09-09 21:23:00,
2013-09-09 17:28:00,76.3,67.3,29.83,SE,135,0.0,2.9,74,0.00,,,0.00,WUHU21636XXSP,2013-09-09 21:28:00,
2013-09-09 17:33:00,75.7,66.7,29.82,SSE,157,6.2,7.1,74,0.00,,,0.00,WUHU21636XXSP,2013-09-09 21:33:00,
2013-09-09 17:38:00,75.4,67.3,29.82,SSE,157,2.0,9.3,76,0.00,,,0.00,WUHU21636XXSP,2013-09-09 21:38:00,
2013-09-09 17:43:00,74.8,66.7,29.81,South,180,3.1,10.7,76,0.00,,,0.00,WUHU21636XXSP,2013-09-09 21:43:00,
2013-09-09 17:48:00,74.5,66.7,29.81,SE,135,2.0,10.7,77,0.00,,,0.00,WUHU21636XXSP,2013-09-09 21:48:00,
2013-09-09 17:53:00,74.3,66.6,29.81,SSW,202,2.6,10.0,78,0.00,,,0.00,WUHU21636XXSP,2013-09-09 21:53:00,
2013-09-09 17:58:00,74.1,66.7,29.82,SE,135,3.8,5.8,78,0.00,,,0.00,WUHU21636XXSP,2013-09-09 21:58:00,
2013-09-09 18:03:00,74.1,66.7,29.82,SSE,157,2.9,5.8,78,0.00,,,0.00,WUHU21636XXSP,2013-09-09 22:03:00,
2013-09-09 18:08:00,73.9,66.6,29.82,SSE,157,1.1,4.4,79,0.00,,,0.00,WUHU21636XXSP,2013-09-09 22:08:00,
2013-09-09 18:13:00,73.8,66.7,29.82,SE,135,3.3,6.9,79,0.00,,,0.00,WUHU21636XXSP,2013-09-09 22:13:00,
2013-09-09 18:18:00,73.2,66.7,29.82,SE,135,2.9,6.9,80,0.00,,,0.00,WUHU21636XXSP,2013-09-09 22:18:00,
2013-09-09 18:23:00,73.0,66.7,29.82,SSW,202,1.1,3.8,82,0.02,,,0.00,WUHU21636XXSP,2013-09-09 22:23:00,
2013-09-09 18:28:00,72.5,66.9,29.82,South,180,1.1,4.6,83,0.02,,,0.00,WUHU21636XXSP,2013-09-09 22:28:00,
2013-09-09 18:33:00,72.3,66.7,29.82,South,180,0.0,4.6,83,0.02,,,0.00,WUHU21636XXSP,2013-09-09 22:33:00,
2013-09-09 18:38:00,72.1,66.9,29.82,SE,135,0.0,1.1,84,0.02,,,0.00,WUHU21636XXSP,2013-09-09 22:38:00,
2013-09-09 18:43:00,72.0,66.7,29.82,SE,135,1.7,1.7,84,0.02,,,0.00,WUHU21636XXSP,2013-09-09 22:43:00,
2013-09-09 18:48:00,72.0,67.1,29.82,SW,225,0.0,1.7,85,0.02,,,0.00,WUHU21636XXSP,2013-09-09 22:48:00,
2013-09-09 18:53:00,71.8,67.1,29.82,South,180,0.0,0.0,85,0.02,,,0.00,WUHU21636XXSP,2013-09-09 22:53:00,
2013-09-09 18:58:00,71.8,66.9,29.81,South,180,0.0,0.0,85,0.02,,,0.00,WUHU21636XXSP,2013-09-09 22:58:00,
2013-09-09 19:03:00,71.8,66.9,29.81,South,180,0.0,0.6,85,0.02,,,0.00,WUHU21636XXSP,2013-09-09 23:03:00,
2013-09-09 19:08:00,72.0,67.1,29.81,South,180,2.6,2.6,85,0.02,,,0.00,WUHU21636XXSP,2013-09-09 23:08:00,
2013-09-09 19:13:00,71.8,66.9,29.81,South,180,2.0,2.6,85,0.02,,,0.00,WUHU21636XXSP,2013-09-09 23:13:00,
2013-09-09 19:18:00,72.0,67.1,29.81,South,180,0.0,2.6,85,0.02,,,0.00,WUHU21636XXSP,2013-09-09 23:18:00,
2013-09-09 19:23:00,71.8,66.9,29.81,South,180,0.0,0.0,85,0.02,,,0.00,WUHU21636XXSP,2013-09-09 23:23:00,
2013-09-09 19:28:00,71.8,66.9,29.81,South,180,0.0,0.0,85,0.02,,,0.00,WUHU21636XXSP,2013-09-09 23:28:00,
2013-09-09 19:33:00,71.8,66.9,29.81,South,180,0.0,0.0,85,0.02,,,0.00,WUHU21636XXSP,2013-09-09 23:33:00,
2013-09-09 19:38:00,71.8,66.9,29.81,South,180,0.0,0.0,85,0.02,,,0.00,WUHU21636XXSP,2013-09-09 23:38:00,
2013-09-09 19:43:00,71.4,66.6,29.81,South,180,0.0,0.0,85,0.02,,,0.00,WUHU21636XXSP,2013-09-09 23:43:00,
2013-09-09 19:48:00,71.4,66.6,29.81,South,180,0.0,0.0,85,0.02,,,0.00,WUHU21636XXSP,2013-09-09 23:48:00,
2013-09-09 19:53:00,71.4,66.9,29.81,South,180,0.0,0.0,86,0.02,,,0.00,WUHU21636XXSP,2013-09-09 23:53:00,
2013-09-09 19:59:00,71.2,66.7,29.81,South,180,0.4,4.0,86,0.02,,,0.00,WUHU21636XXSP,2013-09-09 23:59:00,
2013-09-09 20:04:00,71.1,66.6,29.80,SSE,157,0.0,4.0,86,0.00,,,0.00,WUHU21636XXSP,2013-09-10 00:04:00,
2013-09-09 20:09:00,71.1,66.6,29.80,SSE,157,0.0,1.1,87,0.00,,,0.00,WUHU21636XXSP,2013-09-10 00:09:00,
2013-09-09 20:14:00,70.9,66.7,29.80,SSE,157,1.3,1.3,87,0.00,,,0.00,WUHU21636XXSP,2013-09-10 00:14:00,
2013-09-09 20:18:00,70.9,66.7,29.79,South,180,0.0,1.3,87,0.00,,,0.00,WUHU21636XXSP,2013-09-10 00:18:00,
2013-09-09 20:24:00,70.9,66.7,29.79,SE,135,0.0,0.0,87,0.00,,,0.00,WUHU21636XXSP,2013-09-10 00:24:00,
2013-09-09 20:29:00,70.9,66.7,29.80,SE,135,2.2,2.2,87,0.00,,,0.00,WUHU21636XXSP,2013-09-10 00:29:00,
2013-09-09 20:34:00,70.9,66.7,29.80,SSW,202,0.0,2.2,87,0.00,,,0.00,WUHU21636XXSP,2013-09-10 00:34:00,
2013-09-09 20:39:00,71.1,66.9,29.80,SSE,157,0.8,3.5,87,0.00,,,0.00,WUHU21636XXSP,2013-09-10 00:39:00,
2013-09-09 20:44:00,71.1,66.9,29.80,SE,135,1.3,3.5,87,0.00,,,0.00,WUHU21636XXSP,2013-09-10 00:44:00,
2013-09-09 20:49:00,71.1,67.1,29.80,SSE,157,3.5,3.5,87,0.00,,,0.00,WUHU21636XXSP,2013-09-10 00:49:00,
2013-09-09 20:54:00,71.2,67.1,29.80,South,180,0.0,3.5,87,0.00,,,0.00,WUHU21636XXSP,2013-09-10 00:54:00,
2013-09-09 20:59:00,71.2,67.1,29.79,ESE,112,5.3,5.3,87,0.00,,,0.00,WUHU21636XXSP,2013-09-10 00:59:00,
2013-09-09 21:04:00,71.4,67.3,29.79,SSE,157,4.4,5.3,87,0.00,,,0.00,WUHU21636XXSP,2013-09-10 01:04:00,
2013-09-09 21:09:00,71.4,67.3,29.79,South,180,0.0,4.4,87,0.00,,,0.00,WUHU21636XXSP,2013-09-10 01:09:00,
2013-09-09 21:14:00,71.6,67.5,29.79,South,180,0.6,4.4,87,0.00,,,0.00,WUHU21636XXSP,2013-09-10 01:14:00,
2013-09-09 21:19:00,71.6,67.5,29.79,SE,135,1.5,2.4,87,0.00,,,0.00,WUHU21636XXSP,2013-09-10 01:19:00,
2013-09-09 21:24:00,71.6,67.5,29.79,SSE,157,0.0,2.4,87,0.00,,,0.00,WUHU21636XXSP,2013-09-10 01:24:00,
2013-09-09 21:29:00,71.6,67.5,29.79,South,180,3.3,3.3,87,0.00,,,0.00,WUHU21636XXSP,2013-09-10 01:29:00,
2013-09-09 21:34:00,71.6,67.6,29.79,South,180,5.3,6.7,87,0.00,,,0.00,WUHU21636XXSP,2013-09-10 01:34:00,
2013-09-09 21:39:00,71.8,67.6,29.79,SE,135,3.8,6.7,87,0.00,,,0.00,WUHU21636XXSP,2013-09-10 01:39:00,
2013-09-09 21:44:00,71.8,67.6,29.78,SSW,202,2.6,8.0,87,0.00,,,0.00,WUHU21636XXSP,2013-09-10 01:44:00,
2013-09-09 21:49:00,71.8,67.6,29.78,South,180,1.1,8.5,87,0.00,,,0.00,WUHU21636XXSP,2013-09-10 01:49:00,
2013-09-09 21:54:00,71.8,67.6,29.78,SSW,202,0.0,8.5,87,0.00,,,0.00,WUHU21636XXSP,2013-09-10 01:54:00,
2013-09-09 21:59:00,72.0,67.8,29.78,SSE,157,3.3,8.2,87,0.00,,,0.00,WUHU21636XXSP,2013-09-10 01:59:00,
2013-09-09 22:04:00,72.0,68.0,29.78,SSW,202,6.9,8.2,87,0.00,,,0.00,WUHU21636XXSP,2013-09-10 02:04:00,
2013-09-09 22:09:00,72.1,68.0,29.78,SSE,157,6.7,7.8,87,0.00,,,0.00,WUHU21636XXSP,2013-09-10 02:09:00,
2013-09-09 22:14:00,72.1,68.0,29.78,SSE,157,2.2,8.2,87,0.00,,,0.00,WUHU21636XXSP,2013-09-10 02:14:00,
2013-09-09 22:19:00,72.1,68.0,29.78,South,180,3.5,8.2,87,0.00,,,0.00,WUHU21636XXSP,2013-09-10 02:19:00,
2013-09-09 22:24:00,72.1,68.0,29.78,SSW,202,2.6,10.7,87,0.00,,,0.00,WUHU21636XXSP,2013-09-10 02:24:00,
2013-09-09 22:29:00,72.3,68.2,29.77,SSE,157,0.0,10.7,87,0.00,,,0.00,WUHU21636XXSP,2013-09-10 02:29:00,
2013-09-09 22:34:00,72.3,68.2,29.77,ESE,112,3.8,8.2,87,0.00,,,0.00,WUHU21636XXSP,2013-09-10 02:34:00,
2013-09-09 22:39:00,72.3,68.2,29.77,SSE,157,0.4,7.6,87,0.00,,,0.00,WUHU21636XXSP,2013-09-10 02:39:00,
2013-09-09 22:44:00,72.3,68.2,29.77,South,180,4.2,10.5,87,0.00,,,0.00,WUHU21636XXSP,2013-09-10 02:44:00,
2013-09-09 22:49:00,72.5,68.4,29.77,SSW,202,0.0,10.5,87,0.00,,,0.00,WUHU21636XXSP,2013-09-10 02:49:00,
2013-09-09 22:54:00,72.7,68.4,29.76,SSE,157,2.6,7.8,87,0.00,,,0.00,WUHU21636XXSP,2013-09-10 02:54:00,
2013-09-09 22:59:00,72.7,68.5,29.76,SSE,157,4.4,11.6,87,0.00,,,0.00,WUHU21636XXSP,2013-09-10 02:59:00,
2013-09-09 23:04:00,73.0,68.9,29.75,SSE,157,3.1,11.6,87,0.00,,,0.00,WUHU21636XXSP,2013-09-10 03:04:00,
2013-09-09 23:09:00,73.0,68.9,29.75,SSE,157,2.6,3.3,87,0.00,,,0.00,WUHU21636XXSP,2013-09-10 03:09:00,
2013-09-09 23:14:00,73.0,68.5,29.75,SW,225,3.1,7.1,86,0.00,,,0.00,WUHU21636XXSP,2013-09-10 03:14:00,
2013-09-09 23:19:00,73.2,68.7,29.75,South,180,2.4,10.2,86,0.00,,,0.00,WUHU21636XXSP,2013-09-10 03:19:00,
2013-09-09 23:24:00,73.2,68.7,29.75,SSW,202,3.5,10.2,86,0.00,,,0.00,WUHU21636XXSP,2013-09-10 03:24:00,
2013-09-09 23:29:00,73.4,68.9,29.75,South,180,2.9,6.9,86,0.00,,,0.00,WUHU21636XXSP,2013-09-10 03:29:00,
2013-09-09 23:34:00,73.4,68.9,29.75,SSE,157,2.9,3.5,86,0.00,,,0.00,WUHU21636XXSP,2013-09-10 03:34:00,
2013-09-09 23:39:00,73.6,69.1,29.75,South,180,3.8,4.4,86,0.00,,,0.00,WUHU21636XXSP,2013-09-10 03:39:00,
2013-09-09 23:44:00,73.6,69.1,29.75,SW,225,3.3,8.7,86,0.00,,,0.00,WUHU21636XXSP,2013-09-10 03:44:00,
2013-09-09 23:49:00,73.8,69.3,29.75,SSW,202,4.2,24.8,86,0.00,,,0.00,WUHU21636XXSP,2013-09-10 03:49:00,
2013-09-09 23:54:00,73.8,69.3,29.75,SW,225,8.9,24.8,86,0.00,,,0.00,WUHU21636XXSP,2013-09-10 03:54:00,
2013-09-09 23:59:00,73.9,69.1,29.74,SSW,202,2.6,12.3,85,0.00,,,0.00,WUHU21636XXSP,2013-09-10 03:59:00,